This is the latest recevied weather packets stored in our database for station/object SP2WPY-13. If no packets are shown the sender has not sent any weather packets the latest 10 day(s).
| Time | Temp. | Humidity | Pressure | Rain* | Wind** | Luminosity | Snow |
|---|---|---|---|---|---|---|---|
| 1787667611 | 23.33° C | 54% | 1024.2 hPa | - | - | - | - |
| 1787667338 | 23.33° C | 52% | 1024.2 hPa | - | - | - | - |
| 1787667016 | 23.33° C | 52% | 1024.2 hPa | - | - | - | - |
| 1787666742 | 22.78° C | 57% | 1024.2 hPa | - | - | - | - |
| 1787666423 | 22.78° C | 53% | 1024.1 hPa | - | - | - | - |
| 1787666103 | 23.33° C | 48% | 1024.1 hPa | - | - | - | - |
| 1787665827 | 23.33° C | 50% | 1024.1 hPa | - | - | - | - |
| 1787665508 | 23.89° C | 50% | 1024 hPa | - | - | - | - |
| 1787665234 | 23.89° C | 50% | 1024 hPa | - | - | - | - |
| 1787664914 | 24.44° C | 48% | 1024 hPa | - | - | - | - |
| 1787664641 | 23.89° C | 49% | 1024 hPa | - | - | - | - |
| 1787664320 | 23.89° C | 50% | 1024 hPa | - | - | - | - |
| 1787664045 | 23.89° C | 49% | 1024 hPa | - | - | - | - |
| 1787663723 | 23.89° C | 49% | 1024 hPa | - | - | - | - |
| 1787663404 | 23.33° C | 46% | 1024.1 hPa | - | - | - | - |
| 1787663129 | 23.89° C | 44% | 1024.1 hPa | - | - | - | - |
| 1787662808 | 23.89° C | 44% | 1024.2 hPa | - | - | - | - |
| 1787662533 | 23.33° C | 45% | 1024.2 hPa | - | - | - | - |
| 1787662213 | 23.33° C | 47% | 1024.2 hPa | - | - | - | - |
| 1787661938 | 23.33° C | 50% | 1024.2 hPa | - | - | - | - |
| 1787661616 | 23.33° C | 48% | 1024.2 hPa | - | - | - | - |
| 1787661342 | 23.33° C | 48% | 1024.2 hPa | - | - | - | - |
| 1787661022 | 23.33° C | 45% | 1024.2 hPa | - | - | - | - |
| 1787660702 | 23.33° C | 46% | 1024.2 hPa | - | - | - | - |
| 1787660429 | 23.33° C | 45% | 1024.3 hPa | - | - | - | - |
* Rain since midnight (hover to see other rain measurements)
** Current wind speed in m/s (hover to see current wind gust speed)